[[{"header":{"parameterUnit":"m.s-1","parameterCategory":1,"la1":30.2991,"la2":30.254,"lo1":-89.0895,"lo2":-89.0444,"dy":0.0017,"dx":0.0017,"nx":28,"ny":28,"refTime":"2024-04-27T09:00:00:Z","depth":0,"parameterNumber":2,"parameterNumberName":"U-component_of_WINDS"},"data":[0,0,0,0,0,0,0,0,0,0,0,0,0,0,0,0,0,0,0,0,0,0,0,0,0,0,0,0,0,0,0,0,0,0,0,0,0,0,0,0,0,0,0,0,0,0,0,0,0,0,0,0,0,0,0,0,0,0,-7.7864,-7.7866,0,-7.8033,-7.8035,-7.8037,-7.8015,-7.8013,-7.801,-7.8007,-7.8174,-7.818,-7.8187,0,0,0,0,0,0,0,0,0,0,0,0,0,-7.7515,-7.7521,-7.7864,-7.7866,-7.7868,-7.8033,-7.8035,-7.8038,-7.8016,-7.8013,-7.8009,-7.8006,-7.8171,-7.8179,-7.8188,0,0,0,0,0,0,0,0,0,0,0,0,0,-7.7673,-7.7523,-7.7863,-7.7877,-7.788,-7.8033,-7.8035,-7.8038,-7.8017,-7.8013,-7.8008,-7.8005,-7.8168,-7.8179,-7.8189,-7.8336,0,0,-7.8221,-7.8226,0,0,0,0,0,0,0,0,-7.7664,-7.7686,-7.7873,-7.7877,-7.788,-7.7999,-7.7973,-7.8138,-7.8018,-7.7965,-7.8007,-7.8003,-7.8118,-7.8133,-7.8173,-7.8344,-7.8351,-7.8222,-7.8228,-7.8233,-7.8236,0,0,0,0,0,0,0,-7.7653,-7.7679,-7.7931,-7.7876,-7.788,-7.7873,-7.7891,-7.8004,-7.8062,-7.7969,-7.7968,-7.7989,-7.8119,-7.8163,-7.8177,-7.8353,-7.8222,-7.8231,-7.8237,-7.8241,-7.8653,-7.8657,0,0,0,0,0,0,-7.764,-7.767,-7.7925,-7.7936,-7.776,-7.7883,-7.7903,-7.7965,-7.8061,-7.8072,-7.7992,-7.7987,-7.8147,-7.8165,-7.8183,-7.836,-7.8233,-7.8243,-7.8249,-7.8648,-7.8654,-7.8659,0,0,0,0,0,0,-7.7632,-7.7663,-7.7918,-7.7803,-7.7835,-7.7893,-7.7963,-7.7971,-7.8014,-7.8079,-7.8088,-7.8026,-7.8145,-7.8168,-7.8299,-7.8365,-7.8247,-7.8257,-7.8643,-7.865,-7.8656,-7.8716,0,0,0,0,0,0,-7.7623,-7.766,-7.7718,-7.7804,-7.7841,-7.8033,-7.7967,-7.7977,-7.8033,-7.8028,-7.8113,-7.8123,-7.8143,-7.8283,-7.8309,-7.8378,-7.8265,-7.8637,-7.8646,-7.8654,-7.8708,-7.8724,-7.8738,0,0,0,0,0,-7.761,-7.7727,-7.7721,-7.7752,-7.7915,-7.8037,-7.8058,-7.808,-7.8039,-7.8096,-7.8138,-7.8121,-7.8355,-7.8297,-7.8326,-7.8398,-7.8632,-7.8643,-7.8653,-7.8702,-7.8721,-7.8737,0,0,0,0,0,0,-7.7643,-7.7738,-7.7733,-7.7881,-7.7952,-7.8033,-7.8106,-7.81,-7.8182,-7.8173,-7.8196,-7.8216,-7.8347,-7.8387,-7.832,-7.8546,-7.8488,-7.8504,-7.8514,-7.8534,-7.8548,-7.8534,-7.8274,0,0,0,0,0,-7.7669,-7.7763,-7.7839,-7.7963,-7.7999,-7.8047,-7.8101,-7.8113,-7.8185,-7.8214,-7.8265,-7.8334,-7.8424,-7.8481,-7.8567,-7.8716,-7.8732,-7.878,-7.8795,-7.8807,-7.8819,-7.8899,-7.892,-7.8693,-7.8693,-7.8693,0,0,-7.772,-7.7784,-7.7841,-7.7971,-7.8027,-7.8121,-7.8071,-7.8173,-7.8243,-7.8229,-7.8355,-7.8396,-7.8474,-7.8614,-7.8678,-7.8651,-7.8887,-7.882,-7.8829,-7.8835,-7.8912,-7.8933,-7.8953,-7.87,-7.8699,-7.8698,0,0,-7.7862,-7.7921,-7.8029,-7.8088,-7.8174,-7.8206,-7.8232,-7.8316,-7.8343,-7.8471,-7.8462,-7.8545,-7.8698,-7.8755,-7.8803,-7.897,-7.8956,-7.8997,-7.9072,-7.915,-7.9168,-7.9184,-7.924,-7.9261,-7.9011,-7.9011,-7.9011,0,-7.7914,-7.8058,-7.8085,-7.8189,-7.8245,-7.8242,-7.835,-7.8405,-7.8514,-7.8552,-7.8521,-7.8714,-7.8767,-7.8919,-7.896,-7.9001,-7.9029,-7.8985,-7.9164,-7.918,-7.9195,-7.9249,-7.9271,-7.9015,-7.9015,-7.9014,-7.9014,0,-7.8116,-7.8217,-7.8294,-7.8402,-7.8468,-7.8573,-7.8615,-7.8678,-7.8686,-7.872,-7.885,-7.8914,-7.9012,-7.9051,-7.9058,-7.9204,-7.9184,-7.9159,-7.91,-7.922,-7.9271,-7.9293,-7.9021,-7.9019,-7.9018,-7.9017,0,0,-7.8279,-7.8404,-7.8431,-7.848,-7.8577,-7.8654,-7.876,-7.8859,-7.8911,-7.8988,-7.9074,-7.9206,-7.9184,-7.9239,-7.9253,-7.9322,-7.9447,-7.9288,-7.929,-7.9312,-7.9609,-7.9625,-7.9649,-7.9441,-7.9445,-7.9448,-7.9601,0,-7.8427,-7.8616,-7.8645,-7.8809,-7.8901,-7.89,-7.8992,-7.906,-7.9096,-7.9177,-7.9216,-7.9308,-7.9273,-7.9306,-7.9375,-7.9417,-7.9506,-7.9407,-7.9518,-7.9522,-7.9494,-7.9676,-7.9693,-7.9834,-7.9622,-7.9625,-7.9628,0,-7.8624,-7.8709,-7.8883,-7.8968,-7.9008,-7.909,-7.9183,-7.9262,-7.9339,-7.9361,-7.9424,-7.9431,-7.9538,-7.9479,-7.9626,-7.9558,-7.9606,-7.9634,-7.964,-7.9647,-7.9579,-7.9684,-7.988,-7.9899,-7.966,-7.9658,-7.9655,0,-7.8721,-7.8879,-7.9004,-7.9046,-7.9149,-7.9206,-7.9252,-7.9325,-7.9383,-7.9465,-7.9502,-7.9594,-7.9644,-7.9714,-7.9744,-7.9699,-7.9889,-7.9833,-7.9906,-7.9906,-7.9942,-7.9938,-8.0144,-7.998,-7.998,-7.998,-7.9979,0,-7.8881,-7.8987,-7.9049,-7.9125,-7.9243,-7.9276,-7.9391,-7.9435,-7.9501,-7.9584,-7.959,-7.9667,-7.9704,-7.9787,-7.9812,-7.9928,-7.9951,-7.9969,-7.9974,-7.9967,-7.9964,-7.9995,-7.9984,-7.9985,-7.9984,-7.9983,-7.9982,0,-7.9008,-7.9054,-7.9189,-7.9277,-7.9302,-7.9385,-7.9459,-7.9532,-7.9569,-7.9674,-7.97,-7.9757,-7.9855,-7.9894,-8.0013,-8.003,-8.0163,-8.0162,-8.0137,-8.0138,-8.0208,-8.0199,-8.0437,-8.0469,-8.0288,-8.0289,-8.0291,0,-7.9104,-7.9186,-7.9284,-7.9342,-7.9389,-7.9482,-7.9541,-7.9577,-7.9639,-7.9735,-7.9795,-7.9894,-7.9974,-8.013,-8.0181,-8.0272,-8.0271,-8.0348,-8.0284,-8.0274,-8.0268,-8.0261,-8.0268,-8.0358,-8.036,-8.0361,-8.0362,0,-7.9271,-7.929,-7.9377,-7.9474,-7.9546,-7.9622,-7.9697,-7.9743,-7.979,-7.9859,-7.9961,-8.0023,-8.0147,-8.0243,-8.0338,-8.0382,-8.0379,-8.0383,-8.0404,-8.0395,-8.0376,-8.0384,-8.0165,-8.0376,-8.0375,-8.0374,-8.0373,-8.0372,-7.9383,-7.9455,-7.9536,-7.9633,-7.9694,-7.9764,-7.9837,-7.9885,-7.9971,-8.0075,-8.0091,-8.0199,-8.0275,-8.0402,-8.0451,-8.0534,-8.0514,-8.0545,-8.0552,-8.0559,-8.0562,-8.0367,-8.0552,-8.0552,-8.0551,-8.0551,-8.0551,0,-7.9546,-7.9599,-7.9689,-7.9794,-7.987,-7.9866,-7.9949,-8.0012,-8.0108,-8.018,-8.026,-8.0376,-8.0471,-8.0531,-8.0626,-8.0681,-8.0682,-8.0704,-8.0698,-8.0708,-8.0576,-8.0547,-8.0702,-8.0702,-8.0701,-8.0701,-8.0701,-8.0701,-7.964,-7.9762,-7.9791,-7.9943,-7.9995,-8.0102,-8.0149,-8.0213,-8.0271,-8.0402,-8.0481,-8.0521,-8.0588,-8.0688,-8.0774,-8.0789,-8.0822,-8.0845,-8.0858,-8.0733,-8.0717,-8.0702,-8.0674,-8.0853,-8.0854,-8.0982,-8.0984,-8.0984]},{"header":{"parameterUnit":"m.s-1","parameterCategory":1,"la1":30.2991,"la2":30.254,"lo1":-89.0895,"lo2":-89.0444,"dy":0.0017,"dx":0.0017,"nx":28,"ny":28,"refTime":"2024-04-27T09:00:00:Z","depth":0,"parameterNumber":3,"parameterNumberName":"V-component_of_WINDS"},"data":[0,0,0,0,0,0,0,0,0,0,0,0,0,0,0,0,0,0,0,0,0,0,0,0,0,0,0,0,0,0,0,0,0,0,0,0,0,0,0,0,0,0,0,0,0,0,0,0,0,0,0,0,0,0,0,0,0,0,5.3227,5.3228,0,5.3304,5.3305,5.3306,5.3283,5.3282,5.328,5.3279,5.3351,5.3354,5.3358,0,0,0,0,0,0,0,0,0,0,0,0,0,5.3055,5.3059,5.3227,5.3228,5.3229,5.3304,5.3305,5.3306,5.3284,5.3282,5.328,5.3278,5.335,5.3354,5.3358,0,0,0,0,0,0,0,0,0,0,0,0,0,5.3131,5.306,5.3227,5.3227,5.3228,5.3303,5.3305,5.3306,5.3284,5.3282,5.3279,5.3277,5.3349,5.3354,5.3359,5.3437,0,0,5.3374,5.3376,0,0,0,0,0,0,0,0,5.3126,5.3137,5.3226,5.3227,5.3228,5.3282,5.3271,5.335,5.3285,5.3263,5.3279,5.3276,5.333,5.3336,5.3355,5.344,5.3443,5.3375,5.3378,5.338,5.3381,0,0,0,0,0,0,0,5.3121,5.3133,5.3257,5.3227,5.3229,5.3221,5.323,5.3286,5.3308,5.3264,5.3263,5.3273,5.333,5.3351,5.3357,5.3444,5.3374,5.3379,5.3382,5.3384,5.3597,5.36,0,0,0,0,0,0,5.3116,5.3129,5.3255,5.3259,5.3171,5.3227,5.3236,5.3267,5.3307,5.3311,5.3275,5.3271,5.3343,5.3351,5.3359,5.3454,5.338,5.3384,5.3387,5.3595,5.3598,5.3601,0,0,0,0,0,0,5.3112,5.3127,5.3251,5.3194,5.3209,5.3232,5.3267,5.327,5.329,5.3315,5.3318,5.3292,5.3342,5.3352,5.3418,5.3456,5.3387,5.3391,5.3592,5.3596,5.3599,5.3643,0,0,0,0,0,0,5.3108,5.3126,5.3157,5.3195,5.3213,5.3311,5.327,5.3273,5.33,5.3297,5.3333,5.3336,5.3341,5.3411,5.3423,5.3461,5.3395,5.3588,5.3593,5.3598,5.3638,5.3648,5.3656,0,0,0,0,0,5.3102,5.3165,5.3159,5.3174,5.3252,5.3313,5.3323,5.3328,5.3303,5.3334,5.335,5.3335,5.345,5.3418,5.3432,5.3472,5.3586,5.3592,5.3598,5.3634,5.3646,5.3656,0,0,0,0,0,0,5.3128,5.3169,5.3164,5.3241,5.3274,5.3309,5.3348,5.334,5.3379,5.3374,5.3377,5.3385,5.3453,5.3469,5.3432,5.355,5.3514,5.3523,5.3537,5.3548,5.3557,5.3551,5.34,0,0,0,0,0,5.3143,5.3191,5.3224,5.3289,5.3306,5.3325,5.3351,5.3353,5.3386,5.3399,5.342,5.3451,5.3494,5.3522,5.3563,5.3641,5.3648,5.3675,5.3684,5.3692,5.3699,5.3741,5.3753,5.362,5.362,5.362,0,0,5.3174,5.3203,5.3232,5.3295,5.3321,5.3369,5.3336,5.3388,5.3423,5.3406,5.347,5.3487,5.3522,5.3594,5.3627,5.361,5.3738,5.3699,5.3705,5.3708,5.3748,5.3761,5.3772,5.3624,5.3624,5.3623,0,0,5.3255,5.3282,5.334,5.3367,5.3407,5.3419,5.3433,5.3471,5.3482,5.3547,5.3536,5.3577,5.3651,5.3677,5.3699,5.3793,5.378,5.3806,5.3852,5.3893,5.3904,5.3913,5.3946,5.3958,5.3813,5.3814,5.3814,0,5.3287,5.3361,5.3369,5.3423,5.3451,5.3442,5.3499,5.3524,5.3575,5.3594,5.3574,5.3669,5.3691,5.377,5.3793,5.3812,5.3827,5.3801,5.3902,5.3911,5.392,5.3951,5.3964,5.3816,5.3816,5.3816,5.3815,0,5.3399,5.3451,5.3492,5.3545,5.3577,5.3632,5.3648,5.368,5.3679,5.3693,5.3759,5.3787,5.3834,5.3853,5.3852,5.3931,5.3919,5.3901,5.3865,5.3936,5.3965,5.3977,5.382,5.3819,5.3818,5.3818,0,0,5.3496,5.3555,5.357,5.3594,5.3639,5.3678,5.3733,5.3782,5.3808,5.3844,5.3889,5.3954,5.3938,5.3964,5.3966,5.4002,5.4075,5.398,5.398,5.3996,5.4164,5.4176,5.419,5.4068,5.407,5.4072,5.416,0,5.358,5.368,5.369,5.3777,5.3825,5.3818,5.3865,5.3897,5.3912,5.3953,5.3968,5.4014,5.399,5.4006,5.4042,5.4058,5.4108,5.4052,5.4108,5.411,5.4098,5.4206,5.4219,5.4301,5.4172,5.4174,5.4175,0,5.3692,5.3734,5.3827,5.3868,5.3888,5.3931,5.3976,5.4017,5.4052,5.4061,5.4091,5.4089,5.4144,5.4107,5.4183,5.4145,5.4168,5.418,5.4183,5.4187,5.4146,5.4211,5.4327,5.4339,5.4194,5.4192,5.4191,0,5.3753,5.3833,5.3899,5.392,5.3969,5.3999,5.402,5.4054,5.4083,5.4123,5.4141,5.4186,5.421,5.4244,5.4253,5.4226,5.4328,5.4293,5.4335,5.4335,5.4356,5.4354,5.4476,5.4373,5.4373,5.4373,5.4372,0,5.3845,5.3902,5.3928,5.3968,5.4032,5.4043,5.4105,5.4124,5.4155,5.4198,5.4194,5.4234,5.4245,5.4287,5.4294,5.4356,5.4366,5.4373,5.4374,5.4373,5.4372,5.4387,5.4381,5.4376,5.4375,5.4375,5.4374,0,5.3923,5.3943,5.4015,5.4056,5.4067,5.4113,5.4147,5.4185,5.4201,5.4255,5.4269,5.4292,5.4341,5.4355,5.4412,5.4418,5.4489,5.4486,5.4478,5.4477,5.4519,5.4515,5.4654,5.4673,5.4559,5.456,5.4561,0,5.398,5.4025,5.4072,5.4102,5.4125,5.4173,5.4203,5.4216,5.4247,5.4293,5.4326,5.4375,5.4415,5.4494,5.4514,5.4559,5.4556,5.4602,5.4562,5.456,5.4555,5.4552,5.4556,5.4608,5.461,5.4611,5.4611,0,5.4079,5.4088,5.4133,5.4183,5.422,5.4258,5.4295,5.432,5.4337,5.4373,5.4425,5.4456,5.4517,5.4565,5.4611,5.4631,5.4624,5.4624,5.4636,5.4635,5.4628,5.4632,5.4497,5.462,5.4619,5.4619,5.4618,5.4618,5.4148,5.4188,5.4228,5.4278,5.4309,5.4344,5.4383,5.4404,5.4448,5.4501,5.4505,5.4561,5.4596,5.4657,5.468,5.4723,5.4709,5.4726,5.473,5.4734,5.4738,5.4623,5.4731,5.4731,5.473,5.473,5.473,0,5.4247,5.4273,5.432,5.4374,5.4414,5.4407,5.4448,5.4481,5.4531,5.4566,5.4607,5.4666,5.4714,5.474,5.4787,5.4816,5.4814,5.4828,5.4825,5.4829,5.4748,5.4732,5.4829,5.4829,5.4829,5.4829,5.4829,5.4828,5.4303,5.4369,5.4383,5.4464,5.4489,5.4546,5.457,5.4602,5.463,5.4698,5.4739,5.4756,5.4787,5.4837,5.488,5.4886,5.4903,5.4918,5.4922,5.4845,5.4835,5.4825,5.4811,5.4922,5.4922,5.5,5.5001,5.5002]}]]